TimePST,TemperatureF,Dew PointF,Humidity,Sea Level PressureIn,VisibilityMPH,Wind Direction,Wind SpeedMPH,Gust SpeedMPH,PrecipitationIn,Events,Conditions,WindDirDegrees,DateUTC
12:53 AM,59.0,50.0,72,30.28,10.0,South,5.8,-,N/A,,Clear,180,2012-11-05 08:53:00
1:53 AM,57.9,50.0,75,30.29,10.0,South,4.6,-,N/A,,Clear,180,2012-11-05 09:53:00
2:53 AM,59.0,48.9,69,30.27,10.0,South,11.5,-,N/A,,Clear,180,2012-11-05 10:53:00
4:53 AM,60.1,50.0,69,30.25,10.0,South,12.7,-,N/A,,Partly Cloudy,180,2012-11-05 12:53:00
5:53 AM,63.0,48.0,58,30.24,10.0,SW,15.0,-,N/A,,Clear,220,2012-11-05 13:53:00
6:53 AM,63.0,48.9,60,30.27,10.0,SW,10.4,-,N/A,,Mostly Cloudy,230,2012-11-05 14:53:00
7:53 AM,62.1,50.0,65,30.28,10.0,South,13.8,-,N/A,,Partly Cloudy,190,2012-11-05 15:53:00
8:53 AM,64.0,50.0,60,30.29,10.0,South,9.2,-,N/A,,Clear,190,2012-11-05 16:53:00
9:53 AM,69.1,50.0,51,30.30,10.0,SW,12.7,-,N/A,,Clear,230,2012-11-05 17:53:00
10:53 AM,70.0,52.0,53,30.28,10.0,SW,9.2,-,N/A,,Clear,230,2012-11-05 18:53:00
11:53 AM,70.0,52.0,53,30.27,10.0,WSW,6.9,-,N/A,,Mostly Cloudy,250,2012-11-05 19:53:00
12:53 PM,69.1,52.0,54,30.26,10.0,WSW,9.2,-,N/A,,Clear,240,2012-11-05 20:53:00
1:53 PM,70.0,54.0,57,30.25,10.0,SW,8.1,-,N/A,,Clear,220,2012-11-05 21:53:00
2:53 PM,70.0,55.0,59,30.24,10.0,WSW,5.8,-,N/A,,Clear,250,2012-11-05 22:53:00
3:53 PM,66.9,55.9,68,30.24,7.0,Calm,Calm,-,N/A,,Clear,0,2012-11-05 23:53:00
4:53 PM,60.1,54.0,80,30.23,10.0,NNE,4.6,-,N/A,,Clear,30,2012-11-06 00:53:00
5:53 PM,57.9,54.0,87,30.22,10.0,East,4.6,-,N/A,,Clear,90,2012-11-06 01:53:00
6:53 PM,59.0,53.1,81,30.22,10.0,SSE,4.6,-,N/A,,Clear,150,2012-11-06 02:53:00
7:53 PM,55.9,52.0,87,30.20,10.0,SE,3.5,-,N/A,,Clear,130,2012-11-06 03:53:00
8:53 PM,53.1,48.9,86,30.21,10.0,Calm,Calm,-,N/A,,Clear,0,2012-11-06 04:53:00
9:53 PM,55.0,50.0,83,30.19,10.0,ESE,5.8,-,N/A,,Clear,110,2012-11-06 05:53:00
10:53 PM,55.0,48.9,80,30.16,10.0,Calm,Calm,-,N/A,,Clear,0,2012-11-06 06:53:00
11:53 PM,52.0,48.0,86,30.15,10.0,ESE,4.6,-,N/A,,Clear,110,2012-11-06 07:53:00